Previsão horária em Jugi

Hoje, 18 Junho, Sexta-feira

Tempo Temperatura Precipitação Vento Pressão Humidade
00:00 +17°C° 0 mm 3 m/s 756 mmHg 83%
01:00 +17°C° 0 mm 3 m/s 756 mmHg 83%
02:00 +17°C° 0 mm 3 m/s 756 mmHg 85%
03:00 +17°C° 0 mm 2 m/s 756 mmHg 86%
04:00 +17°C° 0 mm 2 m/s 756 mmHg 88%
05:00 +19°C° 0 mm 2 m/s 756 mmHg 82%
06:00 +21°C° 0 mm 3 m/s 756 mmHg 77%
07:00 +24°C° 0 mm 3 m/s 756 mmHg 70%
08:00 +25°C° 0 mm 3 m/s 756 mmHg 65%
09:00 +26°C° 0 mm 4 m/s 756 mmHg 59%
10:00 +28°C° 0 mm 4 m/s 756 mmHg 54%
11:00 +28°C° 0 mm 4 m/s 756 mmHg 52%
12:00 +29°C° 0 mm 4 m/s 755 mmHg 50%
13:00 +29°C° 0 mm 4 m/s 755 mmHg 48%
14:00 +29°C° 0 mm 4 m/s 755 mmHg 49%
15:00 +29°C° 0 mm 4 m/s 755 mmHg 50%
16:00 +29°C° 0 mm 4 m/s 755 mmHg 50%
17:00 +27°C° 0 mm 3 m/s 754 mmHg 58%
18:00 +26°C° 0 mm 3 m/s 754 mmHg 66%
19:00 +24°C° 0 mm 3 m/s 754 mmHg 74%
20:00 +22°C° 0 mm 3 m/s 754 mmHg 77%
21:00 +21°C° 0 mm 3 m/s 755 mmHg 79%
22:00 +19°C° 0 mm 3 m/s 755 mmHg 81%
23:00 +19°C° 0 mm 3 m/s 755 mmHg 83%

Amanhã, 19 Junho, Sábado

Tempo Temperatura Precipitação Vento Pressão Humidade
00:00 +19°C° 0 mm 3 m/s 755 mmHg 84%
01:00 +18°C° 0 mm 3 m/s 755 mmHg 86%
02:00 +18°C° 0 mm 3 m/s 755 mmHg 86%
03:00 +18°C° 0 mm 3 m/s 755 mmHg 86%
04:00 +17°C° 0 mm 3 m/s 755 mmHg 86%
05:00 +19°C° 0 mm 3 m/s 755 mmHg 81%
06:00 +21°C° 0 mm 3 m/s 755 mmHg 76%
07:00 +23°C° 0 mm 4 m/s 755 mmHg 71%
08:00 +25°C° 0 mm 4 m/s 754 mmHg 68%
09:00 +27°C° 0 mm 5 m/s 754 mmHg 64%
10:00 +28°C° 0 mm 5 m/s 754 mmHg 61%
11:00 +29°C° 0 mm 5 m/s 754 mmHg 58%
12:00 +29°C° 0 mm 4 m/s 754 mmHg 55%
13:00 +30°C° 0 mm 4 m/s 754 mmHg 53%
14:00 +30°C° 0 mm 4 m/s 753 mmHg 53%
15:00 +30°C° 0 mm 3 m/s 753 mmHg 53%
16:00 +30°C° 0 mm 3 m/s 753 mmHg 53%
17:00 +28°C° 0.1 mm 3 m/s 753 mmHg 62%
18:00 +27°C° 0.1 mm 3 m/s 753 mmHg 70%
19:00 +25°C° 0.1 mm 3 m/s 753 mmHg 79%
20:00 +24°C° 0 mm 3 m/s 753 mmHg 82%
21:00 +22°C° 0 mm 3 m/s 753 mmHg 84%
22:00 +21°C° 0 mm 3 m/s 753 mmHg 87%
23:00 +20°C° 0 mm 3 m/s 753 mmHg 89%

Depois de amanhã, 20 Junho, Domingo

Tempo Temperatura Precipitação Vento Pressão Humidade
00:00 +19°C° 0 mm 3 m/s 753 mmHg 90%
01:00 +19°C° 0 mm 2 m/s 753 mmHg 92%
02:00 +19°C° 0 mm 2 m/s 753 mmHg 93%
03:00 +18°C° 0 mm 3 m/s 752 mmHg 93%
04:00 +18°C° 0 mm 3 m/s 752 mmHg 94%
05:00 +20°C° 0 mm 3 m/s 752 mmHg 87%
06:00 +21°C° 0 mm 4 m/s 752 mmHg 81%
07:00 +23°C° 0 mm 4 m/s 752 mmHg 74%
08:00 +25°C° 0 mm 4 m/s 752 mmHg 69%
09:00 +26°C° 0 mm 4 m/s 752 mmHg 63%
10:00 +28°C° 0 mm 3 m/s 752 mmHg 58%
11:00 +28°C° 0 mm 4 m/s 752 mmHg 55%
12:00 +29°C° 0 mm 4 m/s 751 mmHg 52%
13:00 +30°C° 0 mm 4 m/s 751 mmHg 49%
14:00 +30°C° 0 mm 4 m/s 751 mmHg 50%
15:00 +30°C° 0 mm 4 m/s 750 mmHg 51%
16:00 +30°C° 0 mm 4 m/s 750 mmHg 52%
17:00 +28°C° 0 mm 4 m/s 750 mmHg 60%
18:00 +27°C° 0 mm 4 m/s 750 mmHg 68%
19:00 +25°C° 0 mm 3 m/s 749 mmHg 76%
20:00 +24°C° 0 mm 3 m/s 749 mmHg 81%
21:00 +22°C° 0 mm 3 m/s 749 mmHg 86%
22:00 +21°C° 0 mm 3 m/s 749 mmHg 91%
23:00 +20°C° 0 mm 3 m/s 749 mmHg 92%

21 Junho, Segunda-feira

Tempo Temperatura Precipitação Vento Pressão Humidade
00:00 +20°C° 0 mm 3 m/s 749 mmHg 92%
01:00 +19°C° 0 mm 3 m/s 749 mmHg 92%
02:00 +19°C° 0 mm 3 m/s 749 mmHg 93%
03:00 +19°C° 0 mm 3 m/s 749 mmHg 93%
04:00 +19°C° 0 mm 3 m/s 749 mmHg 93%
05:00 +20°C° 0 mm 4 m/s 749 mmHg 86%
06:00 +22°C° 0 mm 5 m/s 748 mmHg 80%
07:00 +23°C° 0 mm 5 m/s 748 mmHg 73%
08:00 +25°C° 0 mm 5 m/s 748 mmHg 67%
09:00 +26°C° 0 mm 6 m/s 748 mmHg 62%
10:00 +27°C° 0 mm 6 m/s 748 mmHg 56%
11:00 +28°C° 0 mm 5 m/s 748 mmHg 54%
12:00 +29°C° 0 mm 5 m/s 747 mmHg 51%
13:00 +29°C° 0 mm 5 m/s 747 mmHg 49%
14:00 +29°C° 0 mm 5 m/s 747 mmHg 51%
15:00 +29°C° 0 mm 4 m/s 747 mmHg 52%
16:00 +29°C° 0 mm 4 m/s 747 mmHg 53%
17:00 +28°C° 0 mm 3 m/s 746 mmHg 61%
18:00 +26°C° 0 mm 3 m/s 746 mmHg 68%
19:00 +25°C° 0 mm 3 m/s 746 mmHg 75%
20:00 +24°C° 0 mm 3 m/s 746 mmHg 79%
21:00 +22°C° 0 mm 3 m/s 746 mmHg 84%
22:00 +21°C° 0 mm 3 m/s 747 mmHg 88%
23:00 +20°C° 0 mm 3 m/s 747 mmHg 89%

22 Junho, Terça-feira

Tempo Temperatura Precipitação Vento Pressão Humidade
00:00 +20°C° 0 mm 3 m/s 747 mmHg 91%
01:00 +19°C° 0 mm 3 m/s 746 mmHg 92%
02:00 +19°C° 0 mm 3 m/s 746 mmHg 92%
03:00 +19°C° 0 mm 3 m/s 746 mmHg 93%
04:00 +19°C° 0 mm 2 m/s 747 mmHg 93%
05:00 +21°C° 0 mm 3 m/s 747 mmHg 87%
06:00 +24°C° 0 mm 3 m/s 747 mmHg 81%
07:00 +25°C° 0 mm 3 m/s 747 mmHg 75%
08:00 +26°C° 0.3 mm 2 m/s 747 mmHg 71%
09:00 +28°C° 0.3 mm 2 m/s 748 mmHg 66%
10:00 +29°C° 0.3 mm 2 m/s 748 mmHg 62%
11:00 +29°C° 0.4 mm 2 m/s 748 mmHg 59%
12:00 +30°C° 0.4 mm 1 m/s 748 mmHg 56%
13:00 +31°C° 0.4 mm 1 m/s 748 mmHg 53%
14:00 +30°C° 0.1 mm 1 m/s 748 mmHg 55%
15:00 +30°C° 0.1 mm 1 m/s 748 mmHg 57%
16:00 +30°C° 0.1 mm 1 m/s 748 mmHg 59%
17:00 +29°C° 0.3 mm 1 m/s 748 mmHg 64%
18:00 +28°C° 0.3 mm 1 m/s 748 mmHg 69%
19:00 +26°C° 0.3 mm 1 m/s 748 mmHg 73%
20:00 +25°C° 0.2 mm 1 m/s 748 mmHg 78%
21:00 +24°C° 0.2 mm 2 m/s 749 mmHg 82%
22:00 +23°C° 0.2 mm 2 m/s 749 mmHg 87%
23:00 +23°C° 0.1 mm 2 m/s 749 mmHg 89%

23 Junho, Quarta-feira

Tempo Temperatura Precipitação Vento Pressão Humidade
00:00 +21°C° 0.1 mm 2 m/s 749 mmHg 91%
01:00 +21°C° 0.1 mm 2 m/s 749 mmHg 94%
02:00 +20°C° 0 mm 2 m/s 749 mmHg 94%
03:00 +20°C° 0 mm 2 m/s 749 mmHg 95%
04:00 +20°C° 0 mm 2 m/s 750 mmHg 95%
05:00 +21°C° 0.1 mm 2 m/s 750 mmHg 91%
06:00 +23°C° 0.1 mm 2 m/s 750 mmHg 86%
07:00 +25°C° 0.1 mm 2 m/s 750 mmHg 82%
08:00 +26°C° 0.6 mm 2 m/s 750 mmHg 76%
09:00 +28°C° 0.6 mm 2 m/s 750 mmHg 70%
10:00 +29°C° 0.6 mm 1 m/s 750 mmHg 64%
11:00 +30°C° 0.7 mm 1 m/s 750 mmHg 60%
12:00 +31°C° 0.7 mm 1 m/s 750 mmHg 55%
13:00 +31°C° 0.7 mm 1 m/s 750 mmHg 51%
14:00 +31°C° 0.1 mm 1 m/s 750 mmHg 53%
15:00 +31°C° 0.1 mm 1 m/s 750 mmHg 56%
16:00 +30°C° 0.1 mm 1 m/s 750 mmHg 58%
17:00 +29°C° 0.1 mm 2 m/s 750 mmHg 64%
18:00 +28°C° 0.1 mm 2 m/s 750 mmHg 70%
19:00 +27°C° 0.1 mm 2 m/s 750 mmHg 76%
20:00 +26°C° 0.1 mm 2 m/s 750 mmHg 80%
21:00 +24°C° 0.1 mm 2 m/s 751 mmHg 83%
22:00 +22°C° 0.1 mm 3 m/s 751 mmHg 87%
23:00 +23°C° 0.1 mm 2 m/s 750 mmHg 88%
Mostrar mais

Necessitamos do seu Consentimento

A Meteoprog e os seus Fornecedores de Serviços podem armazenar e aceder a dados pessoais como cookies, identificadores do dispositivo ou outras tecnologias semelhantes existentes no seu dispositivo e processar estes dados para personalizar conteúdos e anúncios, assim como funcionalidades nas redes sociais e análise de tráfego.

  • Armazenar e/ou aceder a informações no seu dispositivo

    Os cookies, identificadores do dispositivo ou outras informações podem ser armazenados ou acedidos no seu dispositivo, para os fins acima indicados.

  • Anúncios e conteúdos personalizados, medição de anúncios e conteúdos, dados sobre o público-alvo e desenvolvimento de produtos

    Os anúncios e os conteúdos podem ser personalizados com base num perfil. Podem ser adicionados dados adicionais para uma maior personalização dos anúncios e dos conteúdos. A eficácia dos anúncios e dos conteúdos pode ser medida. Podem ser obtidas informações sobre o público que visualizou os anúncios e os conteúdos. Estes dados podem ser usados para desenvolver ou melhorar sistemas, softwares ou a experiência do utilizador.

Ao clicar em "Eu concordo”, permitirá o uso de cookies, identificadores do dispositivo e web beacons mencionados ou outras tecnologias semelhantes. As configurações do navegador do seu dispositivo podem ser alteradas.

Para certos fins, podem ser invocados interesses legítimos ao invés de consentimento. Pode ler mais informação sobre este assunto na nossa Política de Privacidade e Cookies.